Regional Weather Roundup
Issued by NWS

Home | Current Version | Previous Version | Graphics & Text | Print | Product List | Glossary On
Versions: 1 2 3 4 5 6 7 8 9 10 11 12 13 14 15 16 17 18 19 20 21 22 23 24 25 26 27 28 29 30 31 32 33 34 35 36 37 38 39 40 41 42 43 44 45 46 47 48 49 50
000
ASUS45 KBOU 242007
RWRCO

WEATHER ROUNDUP FOR COLORADO
NATIONAL WEATHER SERVICE DENVER/BOULDER CO
200 PM MDT THU JUL 24 2014

NOTE: "FAIR" INDICATES FEW OR NO CLOUDS BELOW 12000 FEET WITH NO
SIGNIFICANT WEATHER AND/OR OBSTRUCTIONS TO VISIBILITY.

COZ001>005-013-030-031-242100-
...NORTHWEST COLORADO...

CITY           SKY/WX    TMP DP  RH WIND       PRES   REMARKS
CRAIG          PTSUNNY   76  52  43 W18       30.23F
HAYDEN         CLOUDY    75  50  41 N6        30.28F THUNDER
MEEKER         PTSUNNY   81  49  32 VRB3      30.26F
MOUNT WERNER   NOT AVBL
STEAMBOAT SPGS CLOUDY    75  47  37 CALM      30.30F
WALDEN         PTSUNNY   70  46  43 W13G20    30.40S
$$

COZ006>008-011-242100-
...WEST CENTRAL VALLEYS...

CITY           SKY/WX    TMP DP  RH WIND       PRES   REMARKS
GRAND JUNCTION PTSUNNY   87  52  29 NW7       30.13F
MONTROSE       CLOUDY    82  52  35 SE7       30.24F
EAGLE          PTSUNNY   81  46  30 SW12G20   30.30F
RIFLE          PTSUNNY   86  48  26 N5        30.19F
DELTA          CLOUDY    89  49  25 S5        30.18F
NUCLA          CLOUDY    90  45  20 W9        30.26F
$$

COZ017>023-064>068-242100-
...SOUTHWEST COLORADO...

CITY           SKY/WX    TMP DP  RH WIND       PRES   REMARKS
DURANGO        MOSUNNY   84  46  26 VRB5      30.30F
CORTEZ         PTSUNNY   88  49  25 NW8       30.24F
PAGOSA SPRINGS MOSUNNY   80  40  24 SW7G16    30.40F
TELLURIDE      NOT AVBL
WOLF CREEK PAS NOT AVBL
$$

COZ009-010-012-014-032>034-037-058>063-242100-
...CENTRAL COLORADO...

CITY           SKY/WX    TMP DP  RH WIND       PRES   REMARKS
ASPEN          MOSUNNY   82  48  30 N13G18    30.36F
BUENA VISTA    SUNNY     83  38  20 N5        30.33F
COPPER MTN     PTSUNNY   64  37  36 W18G29    30.72F
BERTHOUD PASS  PTSUNNY   54  39  58 W18G24    30.75F
COTTONWOOD PAS MOSUNNY   81  32  17 N3        30.51F
GUNNISON       MOSUNNY   81  46  30 N15       30.36F
KREMMLING      CLOUDY    79  36  21 SW8       30.34F
LEADVILLE      MOSUNNY   71  40  32 NW10G21   30.52F
MONARCH PASS   MOSUNNY   64  36  34 SW13G31   30.81F
SALIDA         MOSUNNY  N/A N/A N/A W14G20    30.35F
SUNLIGHT       PTSUNNY   68  50  52 CALM      30.64F
WILKERSON PASS MOSUNNY   70  34  26 W7        30.66F
$$

COZ069>075-242100-
...SAN LUIS VALLEY/SANGRE DE CRISTO MOUNTAINS...

CITY           SKY/WX    TMP DP  RH WIND       PRES   REMARKS
ALAMOSA        SUNNY     83  45  26 SE7       30.33F
LA VETA PASS   SUNNY     75  43  31 SW9       30.56F
SAGUACHE       MOSUNNY   79  46  31 SW6       30.36F
$$

COZ035-036-038>040-242100-
...NORTHERN COLORADO FRONT RANGE...

CITY           SKY/WX    TMP DP  RH WIND       PRES   REMARKS
DENVER INTL AP PTSUNNY   91  44  19 S15       30.08S THUNDER
DMNS CITY PARK   N/A     87  50  27 W3G13     30.08F
AURORA         PTSUNNY   86  43  21 N10       30.11F THUNDER
FRONT RANGE AP PTSUNNY   93  41  16 S9        30.11
ERIE MUNI ARPT PTSUNNY   84  46  27 S25G36    30.07R THUNDER
BOULDER MUN AP PTSUNNY   91  50  24 SE16G24   30.07R
CENTENNIAL     CLOUDY    90  46  21 N7        30.13F
BROOMFIELD     LGT RAIN  73  55  53 E15G23    30.13S
FORT COLLINS   PTSUNNY   97  48  19 SW6       30.01F
LONGMONT       LGT RAIN  97  42  15 SE5       30.05F
$$

COZ041-046-047-076>085-087-088-242100-
...PIKES PEAK/PALMER DIVIDE AND SOUTHERN FOOTHILLS...

CITY           SKY/WX    TMP DP  RH WIND       PRES   REMARKS
COLO. SPRINGS  MOSUNNY   92  45  19 S7        30.16F
A. F. ACADEMY  MOSUNNY   91  46  20 S12       30.18F
ELLICOTT       SUNNY     92  45  19 SW20G29   30.15F
FALCON         SUNNY     89  44  21 SE10G16   30.23F
FORT CARSON    SUNNY     94  48  20 VRB7G17   30.12F
LIMON          MOSUNNY   95  47  19 S17G26    30.07F
MONUMENT HILL  PTSUNNY   86  37  17 N6        30.22F
TRINIDAD       SUNNY     94  42  16 S8        30.15F
$$

COZ042>045-048>051-090-091-242100-
...NORTHEAST COLORADO...

CITY           SKY/WX    TMP DP  RH WIND       PRES   REMARKS
GREELEY ARPT   MOSUNNY   97  52  21 E6        30.02F
AKRON          SUNNY    100  41  13 NW9       30.00F
BURLINGTON     SUNNY     99  40  13 S22G28    30.01F
WRAY             N/A    106  37   9 S15G23    29.93F
STERLING       SUNNY    104  54  18 SE7       29.92F
HOLYOKE        SUNNY     99  61  28 S13G18    29.92F
FORT MORGAN    SUNNY    101  38  11 S5        29.98F
$$

COZ086-089-092>099-242100-
...SOUTHEAST COLORADO...

CITY           SKY/WX    TMP DP  RH WIND       PRES   REMARKS
PUEBLO         SUNNY     97  41  14 CALM      30.03F
LA JUNTA       SUNNY     98  45  16 S10G20    30.02F
LAMAR          SUNNY    101  41  12 SW18G25   29.97F
SPRINGFIELD      N/A     95  47  19 S22G29    30.07F
$$


USA.gov is the U.S. government's official web portal to all federal, state and local government web resources and services.